SCP
0 0 0 0 0 0 0 0 0 0 0 0 0 0 0 0 0 0 0 0 0 0
0 0 0 0 0 0 0 0 0 0 0 0 0 0 0 0 0 0 0 0 0 0
0 0 0 0 0 0 0 0 0 0 0 0 0 0 0 0 0 0 0 0 0 0
0 0 0 0 0 0 0 0 0 0 0 0 0 0 0 0 0 0 0 0 0 0
0 0 0 0 0 0 0 0 0 0 0 0 0 0 0 0 0 0 0 0 0 0
0 0 0 0 0 0 0 0 0 0 0 0 0 0 0 0 0 0 0 0 0 0
0 0 0 0 0 0 0 0 0 0 0 0 0 0 0 0 0 0 0 0 0 0
0 0 0 0 0 0 0 0 0 0 0 0 0 0 0 0 0 0 0 0 0 0
0 0 0 0 0 0 0 0 0 0 0 0 0 0 0 0 0 0 0 0 0 0
0 0 0 0 0 0 0 0 0 0 0 0 0 0 0 0 0 0 0 0 0 0
0 0 0 0 0 0 0 0 0 0 0 0 0 0 0 0 0 0 0 0 0 0
0 0 0 0 0 0 0 0 0 0 0 0 0 0 0 0 0 0 0 0 0 0
0 0 0 0 0 0 0 0 0 0 0 0 0 0 0 0 0 0 0 0 0 0
0 0 -0 -0 0 0 0 0 0 0 0 0 0 0 0 0 0 0 0 0 0 0
Wind_Speed_500mb
98 97 95 92 89 90 91 88 84 84 86 87 84 79 78 75 73 74 72 72 70 68
102 101 101 100 93 90 89 89 87 81 84 84 86 86 84 82 82 80 78 76 74 79
99 102 104 102 98 94 90 92 88 86 84 82 85 88 88 89 87 86 84 83 83 85
93 100 102 105 103 94 91 89 91 88 87 86 85 88 91 92 91 90 88 90 91 85
82 85 94 99 102 97 93 92 88 88 86 87 88 90 92 92 94 96 97 96 93 90
74 76 82 87 95 93 90 93 91 90 86 86 89 94 93 96 98 99 102 101 96 94
65 67 68 70 79 78 79 84 84 85 87 88 88 92 93 93 100 107 110 108 103 99
53 56 56 60 63 66 67 73 72 78 85 90 91 94 99 101 102 104 109 112 122 106
47 48 50 55 53 51 57 59 62 68 75 83 89 91 93 92 100 92 97 101 99 91
5 13 28 42 49 55 62 64 62 62 69 77 85 94 100 99 94 95 94 96 86 82
14 14 13 13 16 20 27 36 44 49 51 57 68 71 69 64 55 51 52 59 63 67
24 23 20 21 24 26 31 32 33 36 36 37 44 35 36 34 43 53 50 53 59 72
29 33 30 23 24 27 33 39 45 45 42 38 53 45 43 40 43 46 56 70 70 65
25 27 35 39 43 48 49 56 52 53 48 46 52 46 43 44 56 60 70 67 64 66
Wind_Direction_500mb
232 233 235 239 238 237 236 237 238 236 237 238 239 239 242 246 248 248 247 247 245 247
233 233 235 238 240 241 241 241 240 242 242 244 243 242 243 246 248 249 250 249 249 248
238 237 237 239 241 241 242 242 242 242 243 245 246 246 244 246 248 249 251 251 251 251
241 241 240 240 244 244 245 245 245 244 244 244 245 246 245 246 249 251 252 252 251 251
245 243 244 244 246 246 246 248 249 248 247 246 246 247 247 246 248 250 250 251 252 251
247 247 248 250 250 249 249 250 250 250 249 248 247 247 248 248 249 252 252 252 251 250
254 253 252 254 254 255 252 253 255 256 256 253 252 251 251 250 250 252 252 251 250 249
254 258 261 259 260 262 262 257 256 256 255 254 254 252 251 250 249 253 256 255 254 245
243 248 252 263 268 267 265 262 260 258 260 258 255 253 253 253 258 254 259 261 262 247
2 253 247 249 253 258 264 267 265 260 260 261 262 261 260 259 257 253 253 258 252 237
3 347 336 321 304 292 288 280 275 271 270 272 272 267 267 265 257 252 242 243 241 228
345 348 332 325 311 303 297 291 290 286 282 284 283 272 269 260 262 237 244 242 237 234
304 294 297 314 312 302 296 299 293 291 282 284 272 256 241 238 238 231 239 239 239 227
337 312 296 288 280 272 268 267 266 268 274 273 270 270 259 254 251 244 240 237 230 218
Wind_Speed_850mb
98 97 95 92 89 90 91 88 84 84 86 87 84 79 78 75 73 74 72 72 70 68
102 101 101 100 93 90 89 89 87 81 84 84 86 86 84 82 82 80 78 76 74 79
99 102 104 102 98 94 90 92 88 86 84 82 85 88 88 89 87 86 84 83 83 85
93 100 102 105 103 94 91 89 91 88 87 86 85 88 91 92 91 90 88 90 91 85
82 85 94 99 102 97 93 92 88 88 86 87 88 90 92 92 94 96 97 96 93 90
74 76 82 87 95 93 90 93 91 90 86 86 89 94 93 96 98 99 102 101 96 94
65 67 68 70 79 78 79 84 84 85 87 88 88 92 93 93 100 107 110 108 103 99
53 56 56 60 63 66 67 73 72 78 85 90 91 94 99 101 102 104 109 112 122 106
47 48 50 55 53 51 57 59 62 68 75 83 89 91 93 92 100 92 97 101 99 91
5 13 28 42 49 55 62 64 62 62 69 77 85 94 100 99 94 95 94 96 86 82
14 14 13 13 16 20 27 36 44 49 51 57 68 71 69 64 55 51 52 59 63 67
24 23 20 21 24 26 31 32 33 36 36 37 44 35 36 34 43 53 50 53 59 72
29 33 30 23 24 27 33 39 45 45 42 38 53 45 43 40 43 46 56 70 70 65
25 27 35 39 43 48 49 56 52 53 48 46 52 46 43 44 56 60 70 67 64 66
Wind_Direction_850mb
232 233 235 239 238 237 236 237 238 236 237 238 239 239 242 246 248 248 247 247 245 247
233 233 235 238 240 241 241 241 240 242 242 244 243 242 243 246 248 249 250 249 249 248
238 237 237 239 241 241 242 242 242 242 243 245 246 246 244 246 248 249 251 251 251 251
241 241 240 240 244 244 245 245 245 244 244 244 245 246 245 246 249 251 252 252 251 251
245 243 244 244 246 246 246 248 249 248 247 246 246 247 247 246 248 250 250 251 252 251
247 247 248 250 250 249 249 250 250 250 249 248 247 247 248 248 249 252 252 252 251 250
254 253 252 254 254 255 252 253 255 256 256 253 252 251 251 250 250 252 252 251 250 249
254 258 261 259 260 262 262 257 256 256 255 254 254 252 251 250 249 253 256 255 254 245
243 248 252 263 268 267 265 262 260 258 260 258 255 253 253 253 258 254 259 261 262 247
2 253 247 249 253 258 264 267 265 260 260 261 262 261 260 259 257 253 253 258 252 237
3 347 336 321 304 292 288 280 275 271 270 272 272 267 267 265 257 252 242 243 241 228
345 348 332 325 311 303 297 291 290 286 282 284 283 272 269 260 262 237 244 242 237 234
304 294 297 314 312 302 296 299 293 291 282 284 272 256 241 238 238 231 239 239 239 227
337 312 296 288 280 272 268 267 266 268 274 273 270 270 259 254 251 244 240 237 230 218